Retour au catalogue

STARLINK-34872

ActifCommunicationsSSO
NORAD 65296·PAYLOAD·🇺🇸 United States

Lancé Aug 22, 2025 depuis Vandenberg Space Force Base

Loading…

Prochains Passages (prochaines 24 heures)

TLE

FraisSource: CelesTrak SupGP

Époque: Sep 15, 2026, 03:08 UTC

1 65296C 25184Z   26258.13104167  .00026211  00000+0  81346-3 0  2588
2 65296  97.2833 306.2401 0000962  83.1439   4.1970 15.33433678    18

Suivez STARLINK-34872 en temps réel avec AllMySat

Download on the App Store